Weather History for KLWM - February, 2013

Change the Weather History Date:

Thursday, February 14, 2013

  Actual Average Record
Temperature  
Mean Temperature 36 °F -  
Max Temperature 43 °F 36 °F 57 °F (1946)
Min Temperature 30 °F 16 °F -6 °F (1944)
Degree Days  
Heating Degree Days 28    
Moisture  
Dew Point 21 °F    
Average Humidity 55    
Maximum Humidity 72    
Minimum Humidity 37    
Precipitation  
Precipitation 0.00 in - - ()
Sea Level Pressure  
Sea Level Pressure 29.89 in    
Wind  
Wind Speed 4 mph (North)    
Max Wind Speed 9 mph    
Max Gust Speed -    
Visibility 10 miles    
Events      
Averages and records for this station are not official NWS values.
T = Trace of Precipitation, MM = Missing Value Source: NWS Daily Summary

Daily Weather History Graph

Daily Weather History Graph

Search for Another Location

Airport or City:

Trip Planner

Search our weather history database for the weather conditions in past years. The results will help you decide how hot, cold, wet, or windy it might be!

Date:

Astronomy

Feb. 14, 2013 Rise Set
Actual Time 6:42 AM EST 5:15 PM EST
Civil Twilight 6:13 AM EST 5:44 PM EST
Nautical Twilight 5:40 AM EST 6:17 PM EST
Astronomical Twilight 5:07 AM EST 6:50 PM EST
Moon 8:35 AM EST (2/14) 10:23 PM EST (2/14)
Length of Visible Light 11h 30m
Length of Day
10h 32m
Waxing Crescent, 21% of the Moon is Illuminated
Feb 14
Waxing Crescent
Feb 17
First Quarter
Feb 25
Full
Mar 4
Last Quarter
Mar 11
New

Hourly Weather History & Observations

Time (EST) Temp. Windchill Dew Point Humidity Pressure Visibility Wind Dir Wind Speed Gust Speed Precip Events Conditions
12:54 AM 33.1 °F - 23.0 °F 66% 29.76 in 10.0 mi Calm Calm - N/A   Overcast
1:54 AM 33.1 °F 28.7 °F 21.0 °F 61% 29.74 in 10.0 mi North 4.6 mph - N/A   Overcast
2:54 AM 33.1 °F 27.7 °F 21.0 °F 61% 29.74 in 10.0 mi North 5.8 mph - N/A   Overcast
3:54 AM 33.1 °F 25.5 °F 21.0 °F 61% 29.76 in 10.0 mi North 9.2 mph - N/A   Overcast
4:54 AM 33.1 °F 26.1 °F 21.0 °F 61% 29.79 in 10.0 mi NNE 8.1 mph - N/A   Overcast
5:54 AM 33.1 °F 26.9 °F 19.9 °F 59% 29.79 in 10.0 mi North 6.9 mph - N/A   Overcast
6:54 AM 32.0 °F 27.5 °F 19.0 °F 59% 29.82 in 10.0 mi North 4.6 mph - N/A   Mostly Cloudy
7:54 AM 33.1 °F 30.0 °F 18.0 °F 54% 29.85 in 10.0 mi North 3.5 mph - N/A   Clear
8:54 AM 36.0 °F 32.1 °F 19.0 °F 50% 29.88 in 10.0 mi NNW 4.6 mph - N/A   Clear
9:54 AM 37.9 °F 33.5 °F 17.1 °F 43% 29.90 in 10.0 mi North 5.8 mph - N/A   Clear
10:54 AM 39.0 °F 33.4 °F 18.0 °F 43% 29.90 in 10.0 mi WNW 8.1 mph - N/A   Mostly Cloudy
11:54 AM 39.0 °F 35.7 °F 19.0 °F 45% 29.91 in 10.0 mi NNW 4.6 mph - N/A   Scattered Clouds
12:54 PM 39.9 °F - 19.0 °F 43% 29.90 in 10.0 mi Calm Calm - N/A   Clear
1:54 PM 41.0 °F 38.0 °F 19.0 °F 41% 29.91 in 10.0 mi North 4.6 mph - N/A   Clear
2:54 PM 42.1 °F 38.4 °F 19.9 °F 41% 29.91 in 10.0 mi North 5.8 mph - N/A   Clear
3:54 PM 43.0 °F 39.5 °F 18.0 °F 37% 29.92 in 10.0 mi West 5.8 mph - N/A   Clear
4:54 PM 43.0 °F - 18.0 °F 37% 29.94 in 10.0 mi Calm Calm - N/A   Clear
5:54 PM 37.9 °F 34.4 °F 23.0 °F 55% 29.96 in 10.0 mi SE 4.6 mph - N/A   Clear
6:54 PM 36.0 °F 33.3 °F 24.1 °F 62% 29.99 in 10.0 mi SE 3.5 mph - N/A   Clear
7:54 PM 35.1 °F 31.0 °F 24.1 °F 64% 29.99 in 10.0 mi SSE 4.6 mph - N/A   Clear
8:54 PM 30.9 °F - 23.0 °F 72% 29.99 in 10.0 mi Calm Calm - N/A   Clear
9:54 PM 30.9 °F - 23.0 °F 72% 29.99 in 10.0 mi Calm Calm - N/A   Clear
10:54 PM 32.0 °F 28.7 °F 23.0 °F 69% 29.99 in 10.0 mi SSW 3.5 mph - 0.00 in   Scattered Clouds
11:54 PM 33.1 °F 28.7 °F 21.9 °F 64% 30.00 in 10.0 mi South 4.6 mph - N/A   Scattered Clouds